Flag for Canada Weather past 2 weeks in London, Ontario, Canada

Now
16 °F

Light snow. Overcast.


Feels Like: 0 °F
Forecast: N/A
Wind: 16 mph from East

Location: London Weather Station

Current Time: Feb 1, 2015 at 4:57:40 PM

Latest Report: Feb 1, 2015 at 4:00 PM


Visibility: 2 mi

Pressure: 30.03 "Hg

Humidity: 86%

Dew point: 12 °F

Location of LondonLocation

Historic Weather in London — Graph

°F

London temperature yesterday

Maximum temperature yesterday: 27 °F (at 9:00 PM)
Minimum temperature yesterday: 7 °F (at 3:00 AM)
Average temperature yesterday: 18 °F

Past Weeks' High & Low Weather Summary

 TemperatureHumidityPressure
High41 °F (Jan 18, 2:00 AM)100% (Jan 18, 7:00 AM)30.43 "Hg (Jan 18, 7:00 AM)
Low-2 °F (Jan 28, 4:00 AM)42% (Jan 28, 2:00 PM)29.52 "Hg (Jan 24, 2:51 PM)
Average21 °F79%30.04 "Hg
* Reported Jan 17 3:00 PM — Feb 1 3:00 PM, London, Weather by CustomWeather, © 2014

Note: Actual official high and low records may vary slightly from our data, if they occured in-between our weather recording intervals... More about our weather records

Advertising

London weather history for previous 24 hours

 ConditionsComfort  
Time TempWeatherWind HumidityBarometerVisibility
3:00 PM
Feb 1
16 °FLight snow. Overcast.16 mph86%30.06 "Hg3 mi
2:00 PM18 °FLight snow. Overcast.18 mph86%30.09 "Hg2 mi
1:00 PM19 °FLight snow. Ice fog.15 mph86%30.14 "Hg1 mi
12:00 PM18 °FLight snow. Overcast.12 mph86%30.17 "Hg2 mi
11:46 AM18 °FLight snow. Overcast.9 mph86%30.17 "Hg2 mi
11:00 AM18 °FLight snow. Overcast.13 mph86%30.20 "Hg2 mi
10:00 AM18 °FLight snow. Ice fog.8 mph86%30.23 "Hg1 mi
9:51 AM18 °FLight snow. Ice fog.9 mph86%30.23 "Hg1 mi
9:00 AM19 °FLight snow. Ice fog.7 mph93%30.23 "Hg1 mi
8:00 AM21 °FLight snow. Ice fog.6 mph86%30.22 "Hg1 mi
7:04 AM21 °FLight snow. Overcast.5 mph86%30.22 "Hg2 mi
7:00 AM23 °FLight snow. Overcast.6 mph74%30.22 "Hg5 mi
6:00 AM23 °FLight snow. Overcast.5 mph74%30.21 "Hg15 mi
5:00 AM23 °FOvercast.8 mph80%30.19 "Hg15 mi
4:00 AM25 °FMostly cloudy.8 mph86%30.20 "Hg12 mi
3:00 AM25 °FOvercast.3 mph93%30.20 "Hg12 mi
2:00 AM25 °FOvercast.5 mph93%30.19 "Hg12 mi
1:00 AM27 °FMostly cloudy.6 mph86%30.20 "Hg12 mi
12:00 AM27 °FOvercast.5 mph86%30.20 "Hg12 mi
11:00 PM
Jan 31
27 °FOvercast.7 mph80%30.19 "Hg12 mi
10:00 PM27 °FOvercast.6 mph80%30.20 "Hg12 mi
9:00 PM27 °FOvercast.8 mph80%30.20 "Hg15 mi
8:00 PM25 °FMostly cloudy.8 mph86%30.21 "Hg12 mi
7:00 PM25 °FOvercast.9 mph80%30.22 "Hg12 mi
6:00 PM25 °FOvercast.8 mph80%30.21 "Hg10 mi
5:00 PM25 °FOvercast.10 mph86%30.22 "Hg10 mi
4:00 PM25 °FOvercast.10 mph80%30.21 "Hg15 mi
Weather by CustomWeather, © 2014

See weather overviewHow to use our weather pages